2023-10-12T00:00:00,rvs,10.97
2023-10-12T00:01:00,rvs,11.70
2023-10-12T00:02:00,rvs,11.78
2023-10-12T00:03:00,rvs,11.69
2023-10-12T00:04:00,rvs,11.92
2023-10-12T00:05:00,rvs,11.92
2023-10-12T00:06:00,rvs,11.08
2023-10-12T00:07:00,rvs,11.57
2023-10-12T00:08:00,rvs,11.43
2023-10-12T00:09:00,rvs,11.34
2023-10-12T00:10:00,rvs,11.26
2023-10-12T00:11:00,rvs,11.30
2023-10-12T00:12:00,rvs,11.07
2023-10-12T00:13:00,rvs,10.74
2023-10-12T00:14:00,rvs,10.71
2023-10-12T00:15:00,rvs,10.95
2023-10-12T00:16:00,rvs,10.94
2023-10-12T00:17:00,rvs,11.06
2023-10-12T00:18:00,rvs,10.56
2023-10-12T00:19:00,rvs,10.61
2023-10-12T00:20:00,rvs,10.73
2023-10-12T00:21:00,rvs,10.99
2023-10-12T00:22:00,rvs,11.09
2023-10-12T00:23:00,rvs,10.66
2023-10-12T00:24:00,rvs,10.95
2023-10-12T00:25:00,rvs,10.63
2023-10-12T00:26:00,rvs,10.72
2023-10-12T00:27:00,rvs,10.72
2023-10-12T00:28:00,rvs,10.74
2023-10-12T00:29:00,rvs,10.61
2023-10-12T00:30:00,rvs,10.10
2023-10-12T00:31:00,rvs,10.28
2023-10-12T00:32:00,rvs,10.81
2023-10-12T00:33:00,rvs,10.88
2023-10-12T00:34:00,rvs,10.64
2023-10-12T00:35:00,rvs,10.64
2023-10-12T00:36:00,rvs,10.91
2023-10-12T00:37:00,rvs,11.33
2023-10-12T00:38:00,rvs,11.27
2023-10-12T00:39:00,rvs,10.95
2023-10-12T00:40:00,rvs,10.93
2023-10-12T00:41:00,rvs,10.94
2023-10-12T00:42:00,rvs,10.88
2023-10-12T00:43:00,rvs,10.87
2023-10-12T00:44:00,rvs,10.66
2023-10-12T00:45:00,rvs,10.32
2023-10-12T00:46:00,rvs,10.37
2023-10-12T00:47:00,rvs,10.44
2023-10-12T00:48:00,rvs,10.39
2023-10-12T00:49:00,rvs,10.30
2023-10-12T00:50:00,rvs,28.26
2023-10-12T00:51:00,rvs,26.86
2023-10-12T00:52:00,rvs,10.36
2023-10-12T00:53:00,rvs,15.06
2023-10-12T00:54:00,rvs,15.02
2023-10-12T00:55:00,rvs,15.03
2023-10-12T00:56:00,rvs,15.01
2023-10-12T00:57:00,rvs,15.49
2023-10-12T00:58:00,rvs,10.96
2023-10-12T00:59:00,rvs,10.86
2023-10-12T01:00:00,rvs,10.62
2023-10-12T01:01:00,rvs,10.27
2023-10-12T01:02:00,rvs,10.27
2023-10-12T01:03:00,rvs,10.46
2023-10-12T01:04:00,rvs,10.42
2023-10-12T01:05:00,rvs,10.40
2023-10-12T01:06:00,rvs,10.38
2023-10-12T01:07:00,rvs,10.34
2023-10-12T01:08:00,rvs,9.64
2023-10-12T01:09:00,rvs,9.80
2023-10-12T01:10:00,rvs,10.35
2023-10-12T01:11:00,rvs,10.72
2023-10-12T01:12:00,rvs,10.52
2023-10-12T01:13:00,rvs,10.50
2023-10-12T01:14:00,rvs,10.64
2023-10-12T01:15:00,rvs,10.66
2023-10-12T01:16:00,rvs,23.84
2023-10-12T01:17:00,rvs,23.64
2023-10-12T01:18:00,rvs,23.32
2023-10-12T01:19:00,rvs,23.07
2023-10-12T01:20:00,rvs,10.52
2023-10-12T01:21:00,rvs,10.63
2023-10-12T01:22:00,rvs,10.95
2023-10-12T01:23:00,rvs,11.22
2023-10-12T01:24:00,rvs,11.28
2023-10-12T01:25:00,rvs,10.67
2023-10-12T01:26:00,rvs,10.19
2023-10-12T01:27:00,rvs,10.21
2023-10-12T01:28:00,rvs,10.13
2023-10-12T01:29:00,rvs,10.13
2023-10-12T01:30:00,rvs,10.68
2023-10-12T01:31:00,rvs,10.24
2023-10-12T01:32:00,rvs,9.75
2023-10-12T01:33:00,rvs,9.76
2023-10-12T01:34:00,rvs,9.72
2023-10-12T01:35:00,rvs,9.66
2023-10-12T01:36:00,rvs,9.74
2023-10-12T01:37:00,rvs,9.63
2023-10-12T01:38:00,rvs,9.83
2023-10-12T01:39:00,rvs,9.67
2023-10-12T01:40:00,rvs,9.63
2023-10-12T01:41:00,rvs,9.66
2023-10-12T01:42:00,rvs,9.60
2023-10-12T01:43:00,rvs,9.54
2023-10-12T01:44:00,rvs,9.46
2023-10-12T01:45:00,rvs,10.12
2023-10-12T01:46:00,rvs,9.46
2023-10-12T01:47:00,rvs,9.51
2023-10-12T01:48:00,rvs,9.36
2023-10-12T01:49:00,rvs,9.45
2023-10-12T01:50:00,rvs,9.38
2023-10-12T01:51:00,rvs,9.26
2023-10-12T01:52:00,rvs,9.33
2023-10-12T01:53:00,rvs,9.31
2023-10-12T01:54:00,rvs,9.27
2023-10-12T01:55:00,rvs,13.65
2023-10-12T01:56:00,rvs,13.74
2023-10-12T01:57:00,rvs,13.75
2023-10-12T01:58:00,rvs,13.78
2023-10-12T01:59:00,rvs,13.74
2023-10-12T02:00:00,rvs,9.45
2023-10-12T02:01:00,rvs,9.30
2023-10-12T02:02:00,rvs,9.30
2023-10-12T02:03:00,rvs,9.27
2023-10-12T02:04:00,rvs,9.33
2023-10-12T02:05:00,rvs,9.31
2023-10-12T02:06:00,rvs,9.33
2023-10-12T02:07:00,rvs,9.38
2023-10-12T02:08:00,rvs,9.36
2023-10-12T02:09:00,rvs,9.35
2023-10-12T02:10:00,rvs,9.28
2023-10-12T02:11:00,rvs,9.29
2023-10-12T02:12:00,rvs,9.21
2023-10-12T02:13:00,rvs,9.19
2023-10-12T02:14:00,rvs,9.17
2023-10-12T02:15:00,rvs,9.24
2023-10-12T02:16:00,rvs,9.32
2023-10-12T02:17:00,rvs,9.19
2023-10-12T02:18:00,rvs,9.24
2023-10-12T02:19:00,rvs,9.41
2023-10-12T02:20:00,rvs,9.56
2023-10-12T02:21:00,rvs,9.62
2023-10-12T02:22:00,rvs,9.08
2023-10-12T02:23:00,rvs,8.88
2023-10-12T02:24:00,rvs,8.93
2023-10-12T02:25:00,rvs,9.71
2023-10-12T02:26:00,rvs,9.60
2023-10-12T02:27:00,rvs,10.03
2023-10-12T02:28:00,rvs,9.89
2023-10-12T02:29:00,rvs,9.96
2023-10-12T02:30:00,rvs,9.93
2023-10-12T02:31:00,rvs,10.04
2023-10-12T02:32:00,rvs,10.32
2023-10-12T02:33:00,rvs,10.34
2023-10-12T02:34:00,rvs,10.47
2023-10-12T02:35:00,rvs,10.79
2023-10-12T02:36:00,rvs,10.31
2023-10-12T02:37:00,rvs,10.14
2023-10-12T02:38:00,rvs,10.02
2023-10-12T02:39:00,rvs,10.07
2023-10-12T02:40:00,rvs,9.94
2023-10-12T02:41:00,rvs,9.51
2023-10-12T02:42:00,rvs,9.04
2023-10-12T02:43:00,rvs,9.04
2023-10-12T02:44:00,rvs,8.93
2023-10-12T02:45:00,rvs,8.97
2023-10-12T02:46:00,rvs,8.97
2023-10-12T02:47:00,rvs,9.04
2023-10-12T02:48:00,rvs,9.10
2023-10-12T02:49:00,rvs,9.05
2023-10-12T02:50:00,rvs,8.89
2023-10-12T02:51:00,rvs,8.83
2023-10-12T02:52:00,rvs,8.78
2023-10-12T02:53:00,rvs,8.96
2023-10-12T02:54:00,rvs,8.95
2023-10-12T02:55:00,rvs,9.56
2023-10-12T02:56:00,rvs,13.52
2023-10-12T02:57:00,rvs,13.58
2023-10-12T02:58:00,rvs,13.56
2023-10-12T02:59:00,rvs,13.50
2023-10-12T03:00:00,rvs,13.63
2023-10-12T03:01:00,rvs,9.19
2023-10-12T03:02:00,rvs,8.99
2023-10-12T03:03:00,rvs,9.03
2023-10-12T03:04:00,rvs,9.01
2023-10-12T03:05:00,rvs,9.07
2023-10-12T03:06:00,rvs,9.00
2023-10-12T03:07:00,rvs,9.01
2023-10-12T03:08:00,rvs,9.03
2023-10-12T03:09:00,rvs,8.80
2023-10-12T03:10:00,rvs,8.99
2023-10-12T03:11:00,rvs,8.89
2023-10-12T03:12:00,rvs,8.92
2023-10-12T03:13:00,rvs,8.86
2023-10-12T03:14:00,rvs,8.94
2023-10-12T03:15:00,rvs,8.87
2023-10-12T03:16:00,rvs,8.92
2023-10-12T03:17:00,rvs,8.84
2023-10-12T03:18:00,rvs,8.82
2023-10-12T03:19:00,rvs,8.72
2023-10-12T03:20:00,rvs,8.93
2023-10-12T03:21:00,rvs,8.88
2023-10-12T03:22:00,rvs,8.66
2023-10-12T03:23:00,rvs,8.66
2023-10-12T03:24:00,rvs,8.73
2023-10-12T03:25:00,rvs,8.75
2023-10-12T03:26:00,rvs,8.70
2023-10-12T03:27:00,rvs,8.70
2023-10-12T03:28:00,rvs,8.51
2023-10-12T03:29:00,rvs,8.57
2023-10-12T03:30:00,rvs,8.56
2023-10-12T03:31:00,rvs,8.74
2023-10-12T03:32:00,rvs,8.71
2023-10-12T03:33:00,rvs,8.78
2023-10-12T03:34:00,rvs,8.90
2023-10-12T03:35:00,rvs,8.83
2023-10-12T03:36:00,rvs,9.02
2023-10-12T03:37:00,rvs,9.00
2023-10-12T03:38:00,rvs,9.06
2023-10-12T03:39:00,rvs,9.61
2023-10-12T03:40:00,rvs,9.64
2023-10-12T03:41:00,rvs,9.66
2023-10-12T03:42:00,rvs,10.16
2023-10-12T03:43:00,rvs,10.28
2023-10-12T03:44:00,rvs,10.27
2023-10-12T03:45:00,rvs,10.18
2023-10-12T03:46:00,rvs,10.09
2023-10-12T03:47:00,rvs,10.13
2023-10-12T03:48:00,rvs,10.50
2023-10-12T03:49:00,rvs,10.80
2023-10-12T03:50:00,rvs,10.81
2023-10-12T03:51:00,rvs,10.46
2023-10-12T03:52:00,rvs,10.62
2023-10-12T03:53:00,rvs,10.65
2023-10-12T03:54:00,rvs,9.57
2023-10-12T03:55:00,rvs,9.59
2023-10-12T03:56:00,rvs,9.28
2023-10-12T03:57:00,rvs,9.87
2023-10-12T03:58:00,rvs,9.38
2023-10-12T03:59:00,rvs,13.92
2023-10-12T04:00:00,rvs,13.88
2023-10-12T04:01:00,rvs,13.83
2023-10-12T04:02:00,rvs,14.55
2023-10-12T04:03:00,rvs,9.36
2023-10-12T04:04:00,rvs,9.29
2023-10-12T04:05:00,rvs,9.64
2023-10-12T04:06:00,rvs,9.20
2023-10-12T04:07:00,rvs,9.12
2023-10-12T04:08:00,rvs,9.10
2023-10-12T04:09:00,rvs,9.24
2023-10-12T04:10:00,rvs,22.27
2023-10-12T04:11:00,rvs,21.92
2023-10-12T04:12:00,rvs,21.68
2023-10-12T04:13:00,rvs,9.06
2023-10-12T04:14:00,rvs,9.01
2023-10-12T04:15:00,rvs,8.81
2023-10-12T04:16:00,rvs,8.84
2023-10-12T04:17:00,rvs,8.79
2023-10-12T04:18:00,rvs,8.71
2023-10-12T04:19:00,rvs,8.71
2023-10-12T04:20:00,rvs,8.89
2023-10-12T04:21:00,rvs,8.85
2023-10-12T04:22:00,rvs,10.04
2023-10-12T04:23:00,rvs,9.95
2023-10-12T04:24:00,rvs,10.06
2023-10-12T04:25:00,rvs,10.20
2023-10-12T04:26:00,rvs,10.23
2023-10-12T04:27:00,rvs,10.20
2023-10-12T04:28:00,rvs,10.13
2023-10-12T04:29:00,rvs,10.08
2023-10-12T04:30:00,rvs,10.28
2023-10-12T04:31:00,rvs,10.09
2023-10-12T04:32:00,rvs,9.92
2023-10-12T04:33:00,rvs,10.04
2023-10-12T04:34:00,rvs,10.20
2023-10-12T04:35:00,rvs,10.11
2023-10-12T04:36:00,rvs,10.02
2023-10-12T04:37:00,rvs,10.06
2023-10-12T04:38:00,rvs,9.06
2023-10-12T04:39:00,rvs,9.05
2023-10-12T04:40:00,rvs,8.97
2023-10-12T04:41:00,rvs,8.94
2023-10-12T04:42:00,rvs,8.93
2023-10-12T04:43:00,rvs,8.82
2023-10-12T04:44:00,rvs,8.91
2023-10-12T04:45:00,rvs,8.89
2023-10-12T04:46:00,rvs,8.86
2023-10-12T04:47:00,rvs,8.90
2023-10-12T04:48:00,rvs,8.94
2023-10-12T04:49:00,rvs,8.83
2023-10-12T04:50:00,rvs,9.35
2023-10-12T04:51:00,rvs,9.23
2023-10-12T04:52:00,rvs,9.18
2023-10-12T04:53:00,rvs,9.20
2023-10-12T04:54:00,rvs,9.67
2023-10-12T04:55:00,rvs,9.72
2023-10-12T04:56:00,rvs,10.11
2023-10-12T04:57:00,rvs,9.92
2023-10-12T04:58:00,rvs,9.98
2023-10-12T04:59:00,rvs,9.96
2023-10-12T05:00:00,rvs,14.60
2023-10-12T05:01:00,rvs,14.51
2023-10-12T05:02:00,rvs,14.59
2023-10-12T05:03:00,rvs,14.98
2023-10-12T05:04:00,rvs,15.11
2023-10-12T05:05:00,rvs,14.93
2023-10-12T05:06:00,rvs,10.30
2023-10-12T05:07:00,rvs,10.20
2023-10-12T05:08:00,rvs,9.98
2023-10-12T05:09:00,rvs,9.50
2023-10-12T05:10:00,rvs,9.50
2023-10-12T05:11:00,rvs,9.12
2023-10-12T05:12:00,rvs,9.07
2023-10-12T05:13:00,rvs,9.25
2023-10-12T05:14:00,rvs,9.21
2023-10-12T05:15:00,rvs,9.03
2023-10-12T05:16:00,rvs,8.90
2023-10-12T05:17:00,rvs,8.80
2023-10-12T05:18:00,rvs,8.71
2023-10-12T05:19:00,rvs,8.63
2023-10-12T05:20:00,rvs,8.47
2023-10-12T05:21:00,rvs,8.54
2023-10-12T05:22:00,rvs,8.56
2023-10-12T05:23:00,rvs,8.59
2023-10-12T05:24:00,rvs,8.68
2023-10-12T05:25:00,rvs,8.68
2023-10-12T05:26:00,rvs,8.73
2023-10-12T05:27:00,rvs,8.81
2023-10-12T05:28:00,rvs,8.62
2023-10-12T05:29:00,rvs,8.56
2023-10-12T05:30:00,rvs,8.72
2023-10-12T05:31:00,rvs,8.83
2023-10-12T05:32:00,rvs,8.80
2023-10-12T05:33:00,rvs,8.93
2023-10-12T05:34:00,rvs,8.97
2023-10-12T05:35:00,rvs,8.86
2023-10-12T05:36:00,rvs,8.76
2023-10-12T05:37:00,rvs,8.65
2023-10-12T05:38:00,rvs,8.66
2023-10-12T05:39:00,rvs,8.68
2023-10-12T05:40:00,rvs,8.78
2023-10-12T05:41:00,rvs,8.83
2023-10-12T05:42:00,rvs,8.78
2023-10-12T05:43:00,rvs,8.82
2023-10-12T05:44:00,rvs,8.75
2023-10-12T05:45:00,rvs,8.68
2023-10-12T05:46:00,rvs,8.80
2023-10-12T05:47:00,rvs,8.74
2023-10-12T05:48:00,rvs,8.76
2023-10-12T05:49:00,rvs,8.75
2023-10-12T05:50:00,rvs,8.69
2023-10-12T05:51:00,rvs,8.61
2023-10-12T05:52:00,rvs,8.59
2023-10-12T05:53:00,rvs,8.76
2023-10-12T05:54:00,rvs,8.89
2023-10-12T05:55:00,rvs,8.93
2023-10-12T05:56:00,rvs,8.82
2023-10-12T05:57:00,rvs,8.77
2023-10-12T05:58:00,rvs,8.94
2023-10-12T05:59:00,rvs,9.21
2023-10-12T06:00:00,rvs,8.86
2023-10-12T06:01:00,rvs,9.51
2023-10-12T06:02:00,rvs,9.60
2023-10-12T06:03:00,rvs,9.66
2023-10-12T06:04:00,rvs,14.10
2023-10-12T06:05:00,rvs,13.69
2023-10-12T06:06:00,rvs,13.85
2023-10-12T06:07:00,rvs,13.86
2023-10-12T06:08:00,rvs,13.19
2023-10-12T06:09:00,rvs,8.75
2023-10-12T06:10:00,rvs,8.88
2023-10-12T06:11:00,rvs,9.42
2023-10-12T06:12:00,rvs,9.44
2023-10-12T06:13:00,rvs,9.32
2023-10-12T06:14:00,rvs,9.47
2023-10-12T06:15:00,rvs,9.29
2023-10-12T06:16:00,rvs,9.38
2023-10-12T06:17:00,rvs,9.43
2023-10-12T06:18:00,rvs,9.29
2023-10-12T06:19:00,rvs,9.20
2023-10-12T06:20:00,rvs,9.19
2023-10-12T06:21:00,rvs,9.38
2023-10-12T06:22:00,rvs,9.21
2023-10-12T06:23:00,rvs,9.33
2023-10-12T06:24:00,rvs,9.59
2023-10-12T06:25:00,rvs,9.86
2023-10-12T06:26:00,rvs,8.75
2023-10-12T06:27:00,rvs,8.75
2023-10-12T06:28:00,rvs,8.69
2023-10-12T06:29:00,rvs,8.75
2023-10-12T06:30:00,rvs,8.86
2023-10-12T06:31:00,rvs,8.74
2023-10-12T06:32:00,rvs,8.82
2023-10-12T06:33:00,rvs,8.71
2023-10-12T06:34:00,rvs,8.71
2023-10-12T06:35:00,rvs,8.90
2023-10-12T06:36:00,rvs,8.99
2023-10-12T06:37:00,rvs,8.90
2023-10-12T06:38:00,rvs,9.03
2023-10-12T06:39:00,rvs,9.14
2023-10-12T06:40:00,rvs,9.05
2023-10-12T06:41:00,rvs,9.05
2023-10-12T06:42:00,rvs,9.25
2023-10-12T06:43:00,rvs,9.21
2023-10-12T06:44:00,rvs,9.14
2023-10-12T06:45:00,rvs,9.34
2023-10-12T06:46:00,rvs,9.16
2023-10-12T06:47:00,rvs,9.07
2023-10-12T06:48:00,rvs,9.09
2023-10-12T06:49:00,rvs,9.08
2023-10-12T06:50:00,rvs,8.92
2023-10-12T06:51:00,rvs,9.28
2023-10-12T06:52:00,rvs,9.28
2023-10-12T06:53:00,rvs,9.42
2023-10-12T06:54:00,rvs,9.58
2023-10-12T06:55:00,rvs,9.45
2023-10-12T06:56:00,rvs,9.62
2023-10-12T06:57:00,rvs,9.57
2023-10-12T06:58:00,rvs,10.11
2023-10-12T06:59:00,rvs,9.93
2023-10-12T07:00:00,rvs,10.11
2023-10-12T07:01:00,rvs,23.46
2023-10-12T07:02:00,rvs,22.99
2023-10-12T07:03:00,rvs,23.01
2023-10-12T07:04:00,rvs,10.03
2023-10-12T07:05:00,rvs,10.26
2023-10-12T07:06:00,rvs,9.96
2023-10-12T07:07:00,rvs,13.75
2023-10-12T07:08:00,rvs,13.60
2023-10-12T07:09:00,rvs,13.56
2023-10-12T07:10:00,rvs,13.58
2023-10-12T07:11:00,rvs,13.72
2023-10-12T07:12:00,rvs,9.04
2023-10-12T07:13:00,rvs,9.20
2023-10-12T07:14:00,rvs,9.23
2023-10-12T07:15:00,rvs,9.08
2023-10-12T07:16:00,rvs,9.60
2023-10-12T07:17:00,rvs,9.71
2023-10-12T07:18:00,rvs,9.11
2023-10-12T07:19:00,rvs,9.11
2023-10-12T07:20:00,rvs,9.05
2023-10-12T07:21:00,rvs,9.19
2023-10-12T07:22:00,rvs,9.37
2023-10-12T07:23:00,rvs,9.28
2023-10-12T07:24:00,rvs,9.37
2023-10-12T07:25:00,rvs,9.46
2023-10-12T07:26:00,rvs,9.74
2023-10-12T07:27:00,rvs,9.62
2023-10-12T07:28:00,rvs,9.46
2023-10-12T07:29:00,rvs,9.59
2023-10-12T07:30:00,rvs,9.53
2023-10-12T07:31:00,rvs,9.57
2023-10-12T07:32:00,rvs,10.29
2023-10-12T07:33:00,rvs,10.28
2023-10-12T07:34:00,rvs,10.16
2023-10-12T07:35:00,rvs,11.58
2023-10-12T07:36:00,rvs,10.54
2023-10-12T07:37:00,rvs,10.53
2023-10-12T07:38:00,rvs,10.04
2023-10-12T07:39:00,rvs,10.23
2023-10-12T07:40:00,rvs,10.32
2023-10-12T07:41:00,rvs,10.55
2023-10-12T07:42:00,rvs,10.53
2023-10-12T07:43:00,rvs,10.97
2023-10-12T07:44:00,rvs,11.14
2023-10-12T07:45:00,rvs,11.32
2023-10-12T07:46:00,rvs,10.88
2023-10-12T07:47:00,rvs,11.15
2023-10-12T07:48:00,rvs,10.94
2023-10-12T07:49:00,rvs,27.55
2023-10-12T07:50:00,rvs,11.22
2023-10-12T07:51:00,rvs,11.92
2023-10-12T07:52:00,rvs,12.28
2023-10-12T07:53:00,rvs,11.89
2023-10-12T07:54:00,rvs,12.08
2023-10-12T07:55:00,rvs,13.29
2023-10-12T07:56:00,rvs,11.66
2023-10-12T07:57:00,rvs,11.33
2023-10-12T07:58:00,rvs,11.36
2023-10-12T07:59:00,rvs,10.84
2023-10-12T08:00:00,rvs,12.20
2023-10-12T08:01:00,rvs,12.73
2023-10-12T08:02:00,rvs,12.35
2023-10-12T08:03:00,rvs,11.65
2023-10-12T08:04:00,rvs,12.58
2023-10-12T08:05:00,rvs,11.88
2023-10-12T08:06:00,rvs,11.83
2023-10-12T08:07:00,rvs,11.99
2023-10-12T08:08:00,rvs,11.97
2023-10-12T08:09:00,rvs,12.01
2023-10-12T08:10:00,rvs,11.97
2023-10-12T08:11:00,rvs,16.45
2023-10-12T08:12:00,rvs,16.52
2023-10-12T08:13:00,rvs,16.35
2023-10-12T08:14:00,rvs,16.45
2023-10-12T08:15:00,rvs,11.96
2023-10-12T08:16:00,rvs,12.01
2023-10-12T08:17:00,rvs,11.96
2023-10-12T08:18:00,rvs,11.58
2023-10-12T08:19:00,rvs,11.59
2023-10-12T08:20:00,rvs,11.81
2023-10-12T08:21:00,rvs,11.82
2023-10-12T08:22:00,rvs,11.99
2023-10-12T08:23:00,rvs,11.82
2023-10-12T08:24:00,rvs,11.98
2023-10-12T08:25:00,rvs,12.26
2023-10-12T08:26:00,rvs,12.36
2023-10-12T08:27:00,rvs,12.13
2023-10-12T08:28:00,rvs,12.72
2023-10-12T08:29:00,rvs,12.09
2023-10-12T08:30:00,rvs,11.56
2023-10-12T08:31:00,rvs,11.19
2023-10-12T08:32:00,rvs,11.33
2023-10-12T08:33:00,rvs,11.15
2023-10-12T08:34:00,rvs,10.75
2023-10-12T08:35:00,rvs,11.19
2023-10-12T08:36:00,rvs,10.70
2023-10-12T08:37:00,rvs,12.39
2023-10-12T08:38:00,rvs,12.50
2023-10-12T08:39:00,rvs,30.04
2023-10-12T08:40:00,rvs,11.32
2023-10-12T08:41:00,rvs,10.83
2023-10-12T08:42:00,rvs,11.11
2023-10-12T08:43:00,rvs,10.77
2023-10-12T08:44:00,rvs,11.02
2023-10-12T08:45:00,rvs,11.22
2023-10-12T08:46:00,rvs,11.38
2023-10-12T08:47:00,rvs,11.80
2023-10-12T08:48:00,rvs,11.93
2023-10-12T08:49:00,rvs,11.60
2023-10-12T08:50:00,rvs,11.43
2023-10-12T08:51:00,rvs,11.76
2023-10-12T08:52:00,rvs,11.79
2023-10-12T08:53:00,rvs,12.30
2023-10-12T08:54:00,rvs,12.34
2023-10-12T08:55:00,rvs,11.80
2023-10-12T08:56:00,rvs,11.70
2023-10-12T08:57:00,rvs,10.97
2023-10-12T08:58:00,rvs,10.96
2023-10-12T08:59:00,rvs,10.90
2023-10-12T09:00:00,rvs,11.19
2023-10-12T09:01:00,rvs,11.10
2023-10-12T09:02:00,rvs,11.61
2023-10-12T09:03:00,rvs,11.63
2023-10-12T09:04:00,rvs,11.45
2023-10-12T09:05:00,rvs,10.82
2023-10-12T09:06:00,rvs,11.39
2023-10-12T09:07:00,rvs,11.43
2023-10-12T09:08:00,rvs,11.46
2023-10-12T09:09:00,rvs,11.77
2023-10-12T09:10:00,rvs,10.85
2023-10-12T09:11:00,rvs,10.97
2023-10-12T09:12:00,rvs,10.82
2023-10-12T09:13:00,rvs,10.79
2023-10-12T09:14:00,rvs,10.54
2023-10-12T09:15:00,rvs,10.45
2023-10-12T09:16:00,rvs,14.83
2023-10-12T09:17:00,rvs,14.90
2023-10-12T09:18:00,rvs,14.76
2023-10-12T09:19:00,rvs,14.94
2023-10-12T09:20:00,rvs,10.38
2023-10-12T09:21:00,rvs,10.66
2023-10-12T09:22:00,rvs,10.43
2023-10-12T09:23:00,rvs,10.44
2023-10-12T09:24:00,rvs,10.63
2023-10-12T09:25:00,rvs,10.70
2023-10-12T09:26:00,rvs,10.94
2023-10-12T09:27:00,rvs,15.45
2023-10-12T09:28:00,rvs,19.36
2023-10-12T09:29:00,rvs,19.66
2023-10-12T09:30:00,rvs,19.99
2023-10-12T09:31:00,rvs,20.63
2023-10-12T09:32:00,rvs,20.18
2023-10-12T09:33:00,rvs,19.75
2023-10-12T09:34:00,rvs,19.71
2023-10-12T09:35:00,rvs,19.31
2023-10-12T09:36:00,rvs,19.07
2023-10-12T09:37:00,rvs,19.09
2023-10-12T09:38:00,rvs,18.86
2023-10-12T09:39:00,rvs,19.15
2023-10-12T09:40:00,rvs,31.78
2023-10-12T09:41:00,rvs,31.48
2023-10-12T09:42:00,rvs,31.66
2023-10-12T09:43:00,rvs,19.93
2023-10-12T09:44:00,rvs,19.21
2023-10-12T09:45:00,rvs,18.97
2023-10-12T09:46:00,rvs,20.16
2023-10-12T09:47:00,rvs,19.96
2023-10-12T09:48:00,rvs,18.84
2023-10-12T09:49:00,rvs,20.10
2023-10-12T09:50:00,rvs,20.41
2023-10-12T09:51:00,rvs,20.41
2023-10-12T09:52:00,rvs,20.20
2023-10-12T09:53:00,rvs,20.26
2023-10-12T09:54:00,rvs,19.39
2023-10-12T09:55:00,rvs,19.64
2023-10-12T09:56:00,rvs,19.30
2023-10-12T09:57:00,rvs,23.28
2023-10-12T09:58:00,rvs,23.43
2023-10-12T09:59:00,rvs,23.28
2023-10-12T10:00:00,rvs,23.06
2023-10-12T10:01:00,rvs,23.25
2023-10-12T10:02:00,rvs,23.17
2023-10-12T10:03:00,rvs,23.20
2023-10-12T10:04:00,rvs,23.17
2023-10-12T10:05:00,rvs,23.01
2023-10-12T10:06:00,rvs,23.00
2023-10-12T10:07:00,rvs,23.09
2023-10-12T10:08:00,rvs,22.24
2023-10-12T10:09:00,rvs,23.91
2023-10-12T10:10:00,rvs,19.86
2023-10-12T10:11:00,rvs,18.67
2023-10-12T10:12:00,rvs,23.52
2023-10-12T10:13:00,rvs,15.93
2023-10-12T10:14:00,rvs,16.05
2023-10-12T10:15:00,rvs,15.81
2023-10-12T10:16:00,rvs,14.78
2023-10-12T10:17:00,rvs,18.93
2023-10-12T10:18:00,rvs,23.06
2023-10-12T10:19:00,rvs,22.98
2023-10-12T10:20:00,rvs,14.83
2023-10-12T10:21:00,rvs,14.90
2023-10-12T10:22:00,rvs,14.70
2023-10-12T10:23:00,rvs,14.84
2023-10-12T10:24:00,rvs,16.29
2023-10-12T10:25:00,rvs,20.48
2023-10-12T10:26:00,rvs,20.91
2023-10-12T10:27:00,rvs,20.41
2023-10-12T10:28:00,rvs,19.91
2023-10-12T10:29:00,rvs,15.35
2023-10-12T10:30:00,rvs,14.62
2023-10-12T10:31:00,rvs,14.59
2023-10-12T10:32:00,rvs,14.72
2023-10-12T10:33:00,rvs,14.76
2023-10-12T10:34:00,rvs,15.04
2023-10-12T10:35:00,rvs,30.58
2023-10-12T10:36:00,rvs,10.83
2023-10-12T10:37:00,rvs,11.77
2023-10-12T10:38:00,rvs,11.83
2023-10-12T10:39:00,rvs,11.61
2023-10-12T10:40:00,rvs,15.65
2023-10-12T10:41:00,rvs,15.46
2023-10-12T10:42:00,rvs,11.28
2023-10-12T10:43:00,rvs,11.01
2023-10-12T10:44:00,rvs,11.18
2023-10-12T10:45:00,rvs,11.37
2023-10-12T10:46:00,rvs,12.29
2023-10-12T10:47:00,rvs,13.75
2023-10-12T10:48:00,rvs,12.26
2023-10-12T10:49:00,rvs,13.63
2023-10-12T10:50:00,rvs,13.36
2023-10-12T10:51:00,rvs,17.70
2023-10-12T10:52:00,rvs,12.56
2023-10-12T10:53:00,rvs,12.33
2023-10-12T10:54:00,rvs,10.72
2023-10-12T10:55:00,rvs,11.77
2023-10-12T10:56:00,rvs,11.99
2023-10-12T10:57:00,rvs,11.88
2023-10-12T10:58:00,rvs,12.21
2023-10-12T10:59:00,rvs,12.16
2023-10-12T11:00:00,rvs,12.08
2023-10-12T11:01:00,rvs,11.45
2023-10-12T11:02:00,rvs,12.20
2023-10-12T11:03:00,rvs,12.20
2023-10-12T11:04:00,rvs,11.35
2023-10-12T11:05:00,rvs,10.64
2023-10-12T11:06:00,rvs,11.01
2023-10-12T11:07:00,rvs,12.14
2023-10-12T11:08:00,rvs,11.31
2023-10-12T11:09:00,rvs,19.91
2023-10-12T11:10:00,rvs,19.37
2023-10-12T11:11:00,rvs,19.40
2023-10-12T11:12:00,rvs,19.26
2023-10-12T11:13:00,rvs,19.14
2023-10-12T11:14:00,rvs,19.31
2023-10-12T11:15:00,rvs,19.29
2023-10-12T11:16:00,rvs,19.91
2023-10-12T11:17:00,rvs,20.47
2023-10-12T11:18:00,rvs,20.60
2023-10-12T11:19:00,rvs,20.58
2023-10-12T11:20:00,rvs,20.86
2023-10-12T11:21:00,rvs,20.54
2023-10-12T11:22:00,rvs,20.77
2023-10-12T11:23:00,rvs,20.06
2023-10-12T11:24:00,rvs,19.97
2023-10-12T11:25:00,rvs,19.94
2023-10-12T11:26:00,rvs,20.00
2023-10-12T11:27:00,rvs,15.95
2023-10-12T11:28:00,rvs,20.02
2023-10-12T11:29:00,rvs,19.81
2023-10-12T11:30:00,rvs,19.94
2023-10-12T11:31:00,rvs,15.87
2023-10-12T11:32:00,rvs,20.14
2023-10-12T11:33:00,rvs,20.02
2023-10-12T11:34:00,rvs,16.00
2023-10-12T11:35:00,rvs,16.10
2023-10-12T11:36:00,rvs,20.05
2023-10-12T11:37:00,rvs,16.40
2023-10-12T11:38:00,rvs,16.25
2023-10-12T11:39:00,rvs,19.36
2023-10-12T11:40:00,rvs,19.23
2023-10-12T11:41:00,rvs,14.52
2023-10-12T11:42:00,rvs,19.12
2023-10-12T11:43:00,rvs,23.10
2023-10-12T11:44:00,rvs,19.16
2023-10-12T11:45:00,rvs,19.36
2023-10-12T11:46:00,rvs,19.01
2023-10-12T11:47:00,rvs,18.86
2023-10-12T11:48:00,rvs,14.62
2023-10-12T11:49:00,rvs,14.44
2023-10-12T11:50:00,rvs,18.52
2023-10-12T11:51:00,rvs,14.24
2023-10-12T11:52:00,rvs,14.31
2023-10-12T11:53:00,rvs,18.77
2023-10-12T11:54:00,rvs,18.62
2023-10-12T11:55:00,rvs,27.85
2023-10-12T11:56:00,rvs,28.16
2023-10-12T11:57:00,rvs,27.50
2023-10-12T11:58:00,rvs,35.89
2023-10-12T11:59:00,rvs,22.68
2023-10-12T12:00:00,rvs,18.76
2023-10-12T12:01:00,rvs,18.89
2023-10-12T12:02:00,rvs,18.91
2023-10-12T12:03:00,rvs,23.91
2023-10-12T12:04:00,rvs,24.93
2023-10-12T12:05:00,rvs,17.01
2023-10-12T12:06:00,rvs,20.20
2023-10-12T12:07:00,rvs,18.82
2023-10-12T12:08:00,rvs,14.76
2023-10-12T12:09:00,rvs,23.50
2023-10-12T12:10:00,rvs,19.33
2023-10-12T12:11:00,rvs,15.18
2023-10-12T12:12:00,rvs,15.19
2023-10-12T12:13:00,rvs,18.95
2023-10-12T12:14:00,rvs,15.29
2023-10-12T12:15:00,rvs,19.25
2023-10-12T12:16:00,rvs,19.08
2023-10-12T12:17:00,rvs,15.07
2023-10-12T12:18:00,rvs,15.01
2023-10-12T12:19:00,rvs,18.82
2023-10-12T12:20:00,rvs,14.95
2023-10-12T12:21:00,rvs,19.64
2023-10-12T12:22:00,rvs,29.05
2023-10-12T12:23:00,rvs,11.30
2023-10-12T12:24:00,rvs,15.42
2023-10-12T12:25:00,rvs,15.36
2023-10-12T12:26:00,rvs,11.34
2023-10-12T12:27:00,rvs,11.33
2023-10-12T12:28:00,rvs,15.30
2023-10-12T12:29:00,rvs,15.48
2023-10-12T12:30:00,rvs,11.77
2023-10-12T12:31:00,rvs,11.75
2023-10-12T12:32:00,rvs,15.90
2023-10-12T12:33:00,rvs,16.33
2023-10-12T12:34:00,rvs,12.29
2023-10-12T12:35:00,rvs,11.81
2023-10-12T12:36:00,rvs,15.78
2023-10-12T12:37:00,rvs,15.42
2023-10-12T12:38:00,rvs,11.01
2023-10-12T12:39:00,rvs,11.01
2023-10-12T12:40:00,rvs,11.05
2023-10-12T12:41:00,rvs,11.83
2023-10-12T12:42:00,rvs,10.44
2023-10-12T12:43:00,rvs,10.43
2023-10-12T12:44:00,rvs,10.46
2023-10-12T12:45:00,rvs,14.50
2023-10-12T12:46:00,rvs,10.33
2023-10-12T12:47:00,rvs,10.29
2023-10-12T12:48:00,rvs,9.97
2023-10-12T12:49:00,rvs,9.87
2023-10-12T12:50:00,rvs,9.80
2023-10-12T12:51:00,rvs,10.05
2023-10-12T12:52:00,rvs,10.06
2023-10-12T12:53:00,rvs,9.73
2023-10-12T12:54:00,rvs,10.09
2023-10-12T12:55:00,rvs,10.62
2023-10-12T12:56:00,rvs,10.52
2023-10-12T12:57:00,rvs,9.98
2023-10-12T12:58:00,rvs,10.24
2023-10-12T12:59:00,rvs,10.25
2023-10-12T13:00:00,rvs,14.63
2023-10-12T13:01:00,rvs,14.74
2023-10-12T13:02:00,rvs,14.92
2023-10-12T13:03:00,rvs,15.30
2023-10-12T13:04:00,rvs,13.89
2023-10-12T13:05:00,rvs,10.04
2023-10-12T13:06:00,rvs,10.37
2023-10-12T13:07:00,rvs,10.31
2023-10-12T13:08:00,rvs,10.44
2023-10-12T13:09:00,rvs,11.42
2023-10-12T13:10:00,rvs,11.43
2023-10-12T13:11:00,rvs,11.59
2023-10-12T13:12:00,rvs,11.78
2023-10-12T13:13:00,rvs,10.59
2023-10-12T13:14:00,rvs,10.51
2023-10-12T13:15:00,rvs,10.46
2023-10-12T13:16:00,rvs,10.66
2023-10-12T13:17:00,rvs,10.62
2023-10-12T13:18:00,rvs,10.56
2023-10-12T13:19:00,rvs,10.55
2023-10-12T13:20:00,rvs,10.83
2023-10-12T13:21:00,rvs,10.90
2023-10-12T13:22:00,rvs,10.51
2023-10-12T13:23:00,rvs,11.10
2023-10-12T13:24:00,rvs,11.40
2023-10-12T13:25:00,rvs,11.47
2023-10-12T13:26:00,rvs,11.15
2023-10-12T13:27:00,rvs,10.90
2023-10-12T13:28:00,rvs,10.88